Weather Roundup
Issued by NWS

Home | Current Version | Previous Version | Graphics & Text | Print | Product List | Glossary Off
Versions: 1 2 3 4 5 6 7 8 9 10 11 12 13 14 15 16 17 18 19 20 21 22 23 24 25 26 27 28 29 30 31 32 33 34 35 36 37 38 39 40 41 42 43 44 45 46 47 48 49 50

370
NZUS93 KARX 270310
HRRWXR

CURRENT HOURLY OBSERVATIONS ACROSS
MUCH OF THE UPPER MISSISSIPPI VALLEY
NATIONAL WEATHER SERVICE LA CROSSE WI
1000 PM CDT TUE JUL 26 2016


...SOUTHEAST MINNESOTA...


CITY           SKY/WX    TMP DP  RH WIND       PRES   REMARKS
ROCHESTER      CLEAR     72  70  93 S6        30.03R
ROCHESTER/MAYO FAIR      77  69  76 S5        30.02R
WINONA         CLEAR     77  66  69 CALM      29.99R
AUSTIN         CLEAR     73  68  83 S3        30.02R
ALBERT LEA     CLEAR     75  68  78 S5        30.02R
DODGE CENTER   PTCLDY    72  68  88 S6        30.03R
PRESTON        CLEAR     73  67  81 SW5       30.04R
OWATONNA       CLEAR     75  68  78 S3        30.02R
FARIBAULT      CLEAR     75  70  83 S5        30.01R
$$

...ELSEWHERE IN MINNESOTA...


CITY           SKY/WX    TMP DP  RH WIND       PRES   REMARKS
MINNEAPOLIS    MOCLDY    83  68  60 SW8       29.98R
INTNL FALLS    CLOUDY    67  58  72 CALM      29.99R
DULUTH         CLOUDY    74  68  81 W8        29.99R
RED WING       RAIN      73  70  88 W5        29.97R
REDWOOD FALLS  PTCLDY    77  69  76 S5        29.98R
MANKATO        CLOUDY    75  66  73 S6        30.00R
WORTHINGTON    PTCLDY    74  68  81 S10       30.03R
FAIRMONT       CLOUDY    75  68  78 S7        30.00R
$$

...SOUTHWEST WISCONSIN...


CITY           SKY/WX    TMP DP  RH WIND       PRES   REMARKS
LA CROSSE      CLEAR     79  69  71 S6        29.99R
PRAIRIE DU CHI CLEAR     73  67  82 CALM      30.01S
BOSCOBEL       CLEAR     72  70  93 CALM      30.02R
LONE ROCK      CLEAR     71  68  90 CALM      30.02R
PLATTEVILLE    CLEAR     75  69  80 SW3       30.03S
FORT MC COY    CLEAR     70  67  89 CALM      30.02R
CAMP DOUGLAS   PTCLDY    68  66  94 SE1       30.01R
MAUSTON-NEW LI CLEAR     71  69  94 CALM      30.00R
VIROQUA        FAIR      73  66  79 S6        30.03S
WIS DELLS      CLEAR     73  65  78 SW5       30.02R
$$

...ELSEWHERE IN WISCONSIN...


CITY           SKY/WX    TMP DP  RH WIND       PRES   REMARKS
MILWAUKEE      CLEAR     77  62  59 S6        30.00R
MADISON        CLEAR     73  66  78 CALM      30.02R
GREEN BAY      CLEAR     75  70  84 SW3       29.98R
EAU CLAIRE     CLOUDY    77  68  73 SW6       29.97R
BLACK RVR FLS  FAIR      69  69  99 CALM      29.99R
MEDFORD        CLEAR     71  67  88 SW5       30.01R
WAUSAU         CLEAR     76  67  73 SW5       29.99R
WIS RAPIDS     CLEAR     74  66  76 SW5       30.01R
MARSHFIELD     CLEAR     72  66  81 SW6       30.00S
RICE LAKE      PTCLDY    75  67  75 W6        30.01R
$$

...NORTHEAST IOWA...


CITY           SKY/WX    TMP DP  RH WIND       PRES   REMARKS
WATERLOO       CLEAR     71  66  84 SE5       30.00S
DUBUQUE        CLEAR     71  68  90 CALM      30.04S
DECORAH        CLOUDY    73  70  88 S5        30.02R
MASON CITY     CLEAR     71  68  90 S7        30.03S
CHARLES CITY   CLEAR     72  72 100 S3        30.03R
OELWEIN        CLEAR     73  68  83 S5        30.03S
$$

...ELSEWHERE IN IOWA...


CITY           SKY/WX    TMP DP  RH WIND       PRES   REMARKS
DES MOINES     PTCLDY    77  65  66 S3        30.02R
IOWA CITY      CLEAR     74  67  78 CALM      30.03S
FORT DODGE     CLEAR     75  66  73 CALM      30.03S
MARSHALLTOWN   CLEAR     71  66  84 SE6       30.01S
CEDAR RAPIDS   CLEAR     70  69  97 CALM      30.02S
$$

...NORTHERN ILLINOIS...


CITY           SKY/WX    TMP DP  RH WIND       PRES   REMARKS
CHICAGO-OHARE  PTCLDY    77  62  59 CALM      30.01R
CHICAGO-MIDWAY PTCLDY    81  61  50 VRB3      30.01R
MOLINE         CLEAR     72  67  84 CALM      30.01R
ROCKFORD       CLEAR     76  66  71 CALM      30.02F
PEORIA         PTCLDY    79  71  76 S5        30.01R
$$

NOTE: "FAIR" INDICATES FEW OR NO CLOUDS BELOW 12,000 FEET WITH NO
SIGNIFICANT WEATHER AND/OR OBSTRUCTIONS TO VISIBILITY. WIND
SPEEDS ARE IN MILES-PER-HOUR.




USA.gov is the U.S. government's official web portal to all federal, state and local government web resources and services.